Stations météo

Publicité
Lorient Lan Bihoue, France (7205): Température de l'air & dewpoint: 17.10.2018 02:00:00 - 23.10.2018 02:00:00 (CEST)Lorient Lan Bihoue, France (7205): Température de l'air 5cm: 17.10.2018 02:00:00 - 23.10.2018 02:00:00 (CEST)Lorient Lan Bihoue, France (7205): Température de l'air -20cm: 17.10.2018 02:00:00 - 23.10.2018 02:00:00 (CEST)Lorient Lan Bihoue, France (7205): Vitesse du vent & gusts: 17.10.2018 02:00:00 - 23.10.2018 02:00:00 (CEST)Lorient Lan Bihoue, France (7205): Direction du vent: 17.10.2018 02:00:00 - 23.10.2018 02:00:00 (CEST)Lorient Lan Bihoue, France (7205): reduced air pressure: 17.10.2018 02:00:00 - 23.10.2018 02:00:00 (CEST)Lorient Lan Bihoue, France (7205): visibility: 17.10.2018 02:00:00 - 23.10.2018 02:00:00 (CEST)Lorient Lan Bihoue, France (7205): Ensoleillement: 17.10.2018 02:00:00 - 23.10.2018 02:00:00 (CEST)Lorient Lan Bihoue, France (7205): Quantités de précipitations: 17.10.2018 02:00:00 - 23.10.2018 02:00:00 (CEST)
Date & Time tt [°C] td [°C] tt 5cm [°C] tt -20cm [°C] ff [km/h] ff [knt] fx [km/h] fx [knt] dd ppp [hPa] vv [km] sd [min] rr [mm]
23.10.2018 02:00:00 6,5 5,6 1,4 13,8 7 4 9 5 NNE 1037,3 20 0 0,0
23.10.2018 01:00:00 6,0 4,5 3,1 14,0 5 3 9 5 NNW 1037,6 17 0 0,0
23.10.2018 00:00:00 7,8 5,4 5,5 14,1 5 3 24 13 E 1037,0 40 0 0,0
22.10.2018 23:00:00 8,9 6,0 7,9 14,2 22 12 30 16 NNE 1037,1 41 0 0,0
22.10.2018 22:00:00 9,7 6,2 8,2 14,2 22 12 27 14 NNE 1036,5 40 0 0,0
22.10.2018 21:00:00 10,2 6,7 9,0 14,2 17 9 27 15 NE 1036,1 39 0 0,0
22.10.2018 20:00:00 11,1 7,8 9,9 14,1 16 8 35 19 NE 1035,8 42 0 0,0
22.10.2018 19:00:00 12,4 8,3 11,7 14,1 18 10 46 25 NE 1035,3 39 34 0,0
22.10.2018 18:00:00 14,1 9,5 14,2 14,1 33 18 51 28 NNE 1035,0 46 6 0,0
22.10.2018 17:00:00 14,3 10,1 15,1 14,2 32 17 50 27 NNE 1034,8 39 24 0,0
22.10.2018 16:00:00 14,9 11,1 16,0 13,9 33 18 52 28 NE 1034,3 44 7 0,0
22.10.2018 15:00:00 15,2 11,4 15,8 13,8 32 17 46 25 NE 1034,0 52 7 0,0
22.10.2018 14:00:00 14,9 11,9 15,4 13,8 30 16 45 24 NE 1034,0 55 0 0,0
22.10.2018 13:00:00 15,2 12,5 15,2 13,7 24 13 42 23 NNE 1034,1 60 0 0,0
22.10.2018 12:00:00 15,1 12,2 15,3 13,8 31 17 51 28 NNE 1033,7 59 0 0,0
22.10.2018 11:00:00 14,7 12,2 14,3 13,7 26 14 38 21 NNE 1033,4 53 0 0,0
22.10.2018 10:00:00 14,3 12,2 14,0 13,9 24 13 37 20 NNE 1032,7 20 0 0,0
22.10.2018 09:00:00 14,4 12,6 13,2 13,7 24 13 34 18 NNE 1031,7 20 0 0,0
22.10.2018 08:00:00 13,4 12,1 11,6 13,7 14 7 21 12 NE 1030,8 14 0 0,0
22.10.2018 07:00:00 12,5 11,4 11,1 13,7 16 8 20 11 NE 1030,4 10 0 0,0
22.10.2018 06:00:00 12,3 11,0 11,3 13,8 13 7 30 16 NE 1030,1 9 0 0,0
22.10.2018 05:00:00 12,6 11,3 11,3 13,9 20 11 31 17 NE 1029,9 9 0 0,0
22.10.2018 04:00:00 12,0 10,7 10,6 13,9 15 8 24 13 NE 1029,8 6 0 0,0
22.10.2018 03:00:00 11,6 10,2 10,7 13,9 16 8 23 13 NNE 1029,5 7 0 0,0
22.10.2018 02:00:00 11,4 9,5 10,7 14,1 13 7 22 12 N 1029,2 15 0 0,0
22.10.2018 01:00:00 11,6 9,2 10,5 14,0 14 8 25 14 NNE 1028,8 18 0 0,0
22.10.2018 00:00:00 11,7 8,2 10,7 14,0 15 8 23 13 NE 1028,3 22 0 0,0
21.10.2018 23:00:00 12,1 7,0 10,8 14,2 18 10 24 13 NNE 1027,9 35 0 0,0
21.10.2018 22:00:00 12,1 5,5 9,7 14,1 15 8 22 12 NNE 1027,6 57 0 0,0
21.10.2018 21:00:00 12,5 5,6 9,9 14,2 12 6 22 12 NNE 1027,3 60 0 0,0
21.10.2018 20:00:00 15,1 4,5 13,1 14,1 13 7 24 13 NE 1026,6 60 0 0,0
21.10.2018 19:00:00 17,0 3,3 15,1 14,1 15 8 23 13 NE 1025,9 54 47 0,0
21.10.2018 18:00:00 19,2 4,1 21,1 14,0 14 7 28 15 ENE 1025,5 54 60 0,0
21.10.2018 17:00:00 20,3 4,7 22,9 13,9 17 9 26 14 NE 1025,5 37 60 0,0
21.10.2018 16:00:00 20,4 4,0 23,9 13,6 14 8 23 12 ENE 1026,0 56 60 0,0
21.10.2018 15:00:00 19,6 4,5 22,2 13,6 10 5 21 12 ENE 1026,5 20 60 0,0
21.10.2018 14:00:00 18,2 7,6 20,8 13,4 14 7 21 12 NE 1027,0 13 60 0,0
21.10.2018 13:00:00 16,2 9,1 18,6 13,4 5 3 13 7 ENE 1027,9 12 60 0,0
21.10.2018 12:00:00 14,2 9,4 14,6 13,4 7 4 18 10 NE 1028,0 12 60 0,2
21.10.2018 11:00:00 11,4 8,3 10,8 13,6 13 7 19 10 ENE 1028,1 11 60 0,0
21.10.2018 10:00:00 8,6 7,2 5,4 13,7 12 7 16 8 NE 1028,0 8 56 0,0
21.10.2018 09:00:00 6,6 5,7 5,1 13,8 13 7 18 10 NE 1027,9 6 0 0,0
21.10.2018 08:00:00 6,4 5,3 4,4 13,8 14 7 16 9 NE 1027,6 7 0 0,0
21.10.2018 07:00:00 6,4 5,3 4,3 13,9 13 7 14 8 NE 1027,5 7 0 0,0
21.10.2018 06:00:00 7,0 5,9 5,0 14,1 13 7 16 8 NE 1027,9 9 0 0,0
21.10.2018 05:00:00 7,6 6,2 5,0 14,2 12 6 14 8 ENE 1028,3 9 0 0,0
21.10.2018 04:00:00 8,4 7,0 6,0 14,2 10 5 16 9 ENE 1028,8 11 0 0,0
21.10.2018 03:00:00 9,4 7,8 7,5 14,3 14 7 20 11 ENE 1028,8 14 0 0,0
21.10.2018 02:00:00 9,7 8,3 6,5 14,5 15 8 19 11 ENE 1029,2 16 0 0,0
21.10.2018 01:00:00 9,5 7,4 7,2 14,5 14 8 19 10 ENE 1029,4 23 0 0,0
21.10.2018 00:00:00 10,6 8,0 8,7 14,5 12 7 17 9 NE 1029,4 26 0 0,0
20.10.2018 23:00:00 11,2 8,4 9,9 14,5 13 7 21 11 ENE 1029,4 23 0 0,0
20.10.2018 22:00:00 11,7 9,1 10,4 14,7 16 9 26 14 NE 1029,2 20 0 0,0
20.10.2018 21:00:00 12,8 9,1 10,2 14,7 14 8 18 10 NE 1029,2 33 0 0,0
20.10.2018 20:00:00 13,2 8,1 10,1 14,7 13 7 18 10 NE 1028,9 20 0 0,0
20.10.2018 19:00:00 15,4 7,9 14,3 14,6 13 7 28 15 NE 1028,3 49 53 0,0
20.10.2018 18:00:00 17,8 7,5 19,3 14,5 16 9 28 15 NE 1028,1 33 60 0,0
20.10.2018 17:00:00 18,8 7,6 21,4 14,5 20 11 29 16 ENE 1028,4 13 60 0,0
20.10.2018 16:00:00 19,0 8,0 21,4 14,4 17 9 33 18 ENE 1028,9 17 60 0,0
20.10.2018 15:00:00 18,9 8,5 21,1 14,4 22 12 34 18 NE 1029,4 18 60 0,0
20.10.2018 14:00:00 17,6 7,6 19,6 14,3 24 13 38 21 ENE 1029,7 18 60 0,0
20.10.2018 13:00:00 16,7 6,8 17,8 14,2 25 14 40 22 NE 1030,4 18 60 0,0
20.10.2018 12:00:00 15,4 8,6 16,4 14,4 23 13 35 19 NE 1030,3 14 60 0,0
20.10.2018 11:00:00 13,9 9,1 14,0 14,3 23 12 33 18 NE 1030,6 10 60 0,0
20.10.2018 10:00:00 11,9 9,1 9,9 14,5 16 9 25 13 NE 1030,0 15 58 0,0
20.10.2018 09:00:00 10,5 8,8 9,2 14,5 14 8 23 12 NE 1029,3 11 0 0,0
20.10.2018 08:00:00 10,4 9,0 8,8 14,6 10 5 24 13 ENE 1028,5 9 0 0,0
20.10.2018 07:00:00 10,9 9,3 10,0 14,7 16 9 26 14 ENE 1028,4 11 0 0,0
20.10.2018 06:00:00 11,3 9,6 10,5 14,7 20 11 31 17 ENE 1028,0 10 0 0,0
20.10.2018 05:00:00 11,6 10,0 10,6 14,7 16 9 28 15 ENE 1027,6 10 0 0,0
20.10.2018 04:00:00 11,6 10,2 10,7 14,9 19 11 26 14 ENE 1027,7 11 0 0,0
20.10.2018 03:00:00 12,0 10,2 11,3 14,9 18 10 30 16 ENE 1027,5 13 0 0,0
20.10.2018 02:00:00 12,4 10,5 11,5 14,9 21 12 32 17 ENE 1027,2 15 0 0,0
20.10.2018 01:00:00 12,5 10,4 11,3 14,9 18 10 26 14 NE 1027,5 16 0 0,0
20.10.2018 00:00:00 12,7 10,6 11,5 15,0 13 7 26 14 NE 1026,8 16 0 0,0
19.10.2018 23:00:00 12,5 10,6 11,6 15,1 12 6 24 13 NE 1026,9 18 0 0,0
19.10.2018 22:00:00 12,7 10,8 11,3 15,2 13 7 19 10 NE 1026,3 19 0 0,0
19.10.2018 21:00:00 13,3 10,5 12,1 15,1 14 8 26 14 NE 1026,0 23 0 0,0
19.10.2018 20:00:00 14,3 10,5 13,4 15,1 20 11 36 20 NE 1025,9 27 0 0,0
19.10.2018 19:00:00 15,7 11,1 15,2 15,0 18 10 37 20 NE 1024,6 28 55 0,0
19.10.2018 18:00:00 17,9 11,5 19,3 15,0 21 11 33 18 NNE 1023,8 20 60 0,0
19.10.2018 17:00:00 18,9 11,7 21,5 14,9 20 11 30 16 NE 1023,3 19 60 0,0
19.10.2018 16:00:00 19,2 12,2 21,9 14,7 22 12 31 17 NNE 1023,3 17 60 0,0
19.10.2018 15:00:00 19,2 12,2 21,0 14,6 21 11 34 18 NNE 1023,6 15 60 0,0
19.10.2018 14:00:00 18,0 11,5 20,3 14,5 22 12 34 19 NE 1023,5 14 60 0,0
19.10.2018 13:00:00 17,5 12,0 19,1 14,5 23 13 34 18 NE 1023,8 9 60 0,0
19.10.2018 12:00:00 16,5 11,8 17,3 14,6 23 12 34 18 NE 1024,0 11 60 0,0
19.10.2018 11:00:00 14,7 11,7 14,1 14,6 18 10 26 14 NE 1024,0 13 60 0,0
19.10.2018 10:00:00 12,4 11,0 10,4 14,7 16 9 25 14 NNE 1023,8 11 60 0,0
19.10.2018 09:00:00 10,9 10,1 9,7 14,8 13 7 17 9 NE 1022,9 8 0 0,0
19.10.2018 08:00:00 10,6 9,8 9,7 14,9 12 6 16 9 NNE 1022,6 9 0 0,0
19.10.2018 07:00:00 11,0 10,1 10,1 14,9 12 7 19 11 NNE 1022,5 9 0 0,0
19.10.2018 06:00:00 11,2 10,4 10,0 15,0 10 5 16 9 ENE 1022,5 9 0 0,0
19.10.2018 05:00:00 11,3 10,5 10,5 15,1 11 6 16 9 NE 1022,7 8 0 0,0
19.10.2018 04:00:00 11,8 10,9 10,7 15,1 13 7 18 10 NE 1022,5 11 0 0,0
19.10.2018 03:00:00 12,2 10,9 11,1 15,1 12 6 22 12 NE 1022,7 14 0 0,0
19.10.2018 02:00:00 12,8 11,4 11,9 15,2 16 9 23 12 NE 1022,5 18 0 0,0
19.10.2018 01:00:00 13,2 11,6 12,2 15,3 14 8 28 15 ENE 1022,5 26 0 0,0
19.10.2018 00:00:00 13,7 11,6 12,7 15,4 18 10 26 14 NE 1022,6 38 0 0,0
18.10.2018 23:00:00 14,2 11,9 12,9 15,3 16 8 27 15 NE 1022,3 44 0 0,0
18.10.2018 22:00:00 14,3 12,2 13,5 15,3 16 9 27 14 NNE 1022,3 37 0 0,0
18.10.2018 21:00:00 14,7 12,4 13,8 15,3 20 11 30 16 NE 1021,9 34 0 0,0
18.10.2018 20:00:00 15,2 12,1 14,3 15,2 20 11 32 17 NNE 1021,5 38 0 0,0
18.10.2018 19:00:00 16,5 11,6 16,3 15,2 23 12 40 22 NE 1020,9 44 57 0,0
18.10.2018 18:00:00 17,9 11,7 19,2 15,2 27 15 43 23 NNE 1020,7 43 60 0,0
18.10.2018 17:00:00 19,2 12,2 21,2 15,0 28 15 40 21 NE 1020,7 26 60 0,0
18.10.2018 16:00:00 20,3 12,3 23,1 14,8 25 13 35 19 NNE 1020,7 48 60 0,0
18.10.2018 15:00:00 21,1 11,4 23,1 14,7 19 11 34 18 ENE 1020,7 20 60 0,0
18.10.2018 14:00:00 19,7 11,7 20,4 14,6 23 12 32 18 ENE 1021,2 42 26 0,0
18.10.2018 13:00:00 18,8 13,0 19,9 14,7 24 13 40 21 ENE 1021,9 20 56 0,0
18.10.2018 12:00:00 17,7 13,2 17,5 14,5 23 12 42 23 ENE 1022,0 11 33 0,0
18.10.2018 11:00:00 16,8 13,1 16,9 14,5 29 16 43 23 NE 1022,0 18 42 0,0
18.10.2018 10:00:00 15,7 13,4 14,7 14,4 25 13 37 20 NE 1021,8 16 31 0,0
18.10.2018 09:00:00 15,0 13,0 14,4 14,6 23 12 34 18 NE 1021,1 14 0 0,0
18.10.2018 08:00:00 14,9 13,1 14,4 14,5 18 10 32 17 NE 1020,6 14 0 0,0
18.10.2018 07:00:00 14,8 13,0 14,2 14,6 21 12 35 19 NE 1020,4 11 0 0,0
18.10.2018 06:00:00 14,7 13,1 13,4 14,6 22 12 31 17 NNE 1020,1 10 0 0,0
18.10.2018 05:00:00 13,6 12,5 12,4 14,6 15 8 27 15 NNE 1020,1 12 0 0,0
18.10.2018 04:00:00 12,5 11,6 11,2 14,7 16 9 26 14 N 1020,2 15 0 0,0
18.10.2018 03:00:00 11,4 10,8 9,6 14,7 14 7 21 12 NNE 1020,2 12 0 0,0
18.10.2018 02:00:00 10,4 9,6 9,2 14,9 11 6 22 12 N 1020,4 12 0 0,0
18.10.2018 01:00:00 10,2 9,4 9,1 14,9 13 7 19 10 N 1020,5 12 0 0,0
18.10.2018 00:00:00 10,3 9,5 9,0 15,0 9 5 15 8 NNE 1020,6 10 0 0,0
17.10.2018 23:00:00 10,4 9,6 9,1 15,0 11 6 14 8 NNE 1020,4 11 0 0,0
17.10.2018 22:00:00 11,0 10,2 8,1 15,0 9 5 12 6 NNE 1020,0 13 0 0,0
17.10.2018 21:00:00 12,2 11,3 9,2 14,9 5 3 7 4 N 1019,7 0,8 0 0,0
17.10.2018 20:00:00 14,4 12,9 13,0 14,8 3 2 5 3 NE 1019,0 49 0 0,0
17.10.2018 19:00:00 15,2 12,9 15,2 14,7 4 2 10 5 SSW 1018,4 59 9 0,0
17.10.2018 18:00:00 16,7 12,6 17,8 14,7 6 3 11 6 SSW 1017,7 60 36 0,0
17.10.2018 17:00:00 16,8 13,1 18,6 14,5 8 4 20 11 SSE 1017,7 55 34 0,0
17.10.2018 16:00:00 16,2 13,1 17,5 14,3 13 7 23 12 SE 1017,8 49 20 0,0
17.10.2018 15:00:00 16,8 12,5 19,0 14,2 12 7 22 12 SSE 1017,8 18 37 0,0
17.10.2018 14:00:00 16,5 13,2 16,8 14,2 15 8 22 12 SSE 1018,3 53 11 0,0
17.10.2018 13:00:00 15,7 13,0 17,1 14,1 10 5 18 10 ESE 1018,8 20 29 0,0
17.10.2018 12:00:00 15,5 13,5 16,9 14,1 10 5 15 8 SE 1018,9 20 45 0,0
17.10.2018 11:00:00 12,9 12,7 12,7 14,1 7 4 10 5 E 1019,0 12 53 0,0
17.10.2018 10:00:00 10,7 10,5 6,0 14,3 8 4 10 5 E 1019,0 6 57 0,4
17.10.2018 09:00:00 7,8 7,5 4,9 14,3 8 5 9 5 ENE 1018,8 0,4 1 0,0
17.10.2018 08:00:00 7,9 7,6 5,6 14,4 9 5 10 5 E 1018,8 1,3 0 0,0
17.10.2018 07:00:00 8,6 8,3 6,5 14,5 7 4 9 5 ENE 1018,8 4,7 0 0,0
17.10.2018 06:00:00 8,0 7,7 4,4 14,5 4 2 6 4 ENE 1018,8 3,2 0 0,0
17.10.2018 05:00:00 8,0 7,7 5,8 14,7 6 4 8 4 E 1018,8 1,3 0 0,0
17.10.2018 04:00:00 8,6 8,3 6,8 14,7 6 3 8 4 E 1019,1 1,4 0 0,0
17.10.2018 03:00:00 8,2 7,9 5,4 14,9 5 3 7 4 ENE 1019,4 0,4 0 0,2
17.10.2018 02:00:00 7,9 7,6 5,2 15,1 5 3 6 4 E 1019,8 0,1 0 0,0

tt = Température de l'air
td = dewpoint
tt 5cm = Température de l'air 5cm
tt -20cm = Température de l'air -20cm
ff = Vitesse du vent
fx = gusts
dd = Direction du vent
ppp = reduced air pressure
vv = visibility
sd = Ensoleillement
rr = Quantités de précipitations

stations d'obs. à proximité